Western Head, Nova Scotia

1:35 PM ADT on April 26, 2017 (GMT -0300)
Western Head

Weather History for CWWE - October, 2012

Change the Weather History Date:

Tuesday, October 30, 2012

  Actual Average Record
Temperature  
Mean Temperature 58 °F -  
Max Temperature 59 °F - - ()
Min Temperature 56 °F - - ()
Degree Days  
Heating Degree Days 8    
Growing Degree Days 8 (Base 50)    
Moisture  
Dew Point 57 °F    
Average Humidity 97    
Maximum Humidity 100    
Minimum Humidity 92    
Precipitation  
Precipitation 0.16 in - - ()
Sea Level Pressure  
Sea Level Pressure 29.92 in    
Wind  
Wind Speed 23 mph ()    
Max Wind Speed 28 mph    
Max Gust Speed 37 mph    
T = Trace of Precipitation, MM = Missing Value Source: Averaged Metar Reports

Daily Weather History Graph

Daily Weather History Graph

Search for Another Location

Airport or City:

Trip Planner

Search our weather history database for the weather conditions in past years. The results will help you decide how hot, cold, wet, or windy it might be!

Date:

Astronomy

Oct. 30, 2012 Rise Set
Actual Time 7:53 AM ADT 6:10 PM ADT
Civil Twilight 7:23 AM ADT 6:40 PM ADT
Nautical Twilight 6:49 AM ADT 7:14 PM ADT
Astronomical Twilight 6:15 AM ADT 7:48 PM ADT
Moon 6:34 PM ADT (10/30) 8:38 AM ADT (10/30)
Length of Visible Light 11h 17m
Length of Day
10h 17m
Waxing Gibbous, 99% of the Moon is Illuminated
Oct 30
Waxing Gibbous
Nov 6
Last Quarter
Nov 13
New
Nov 20
First Quarter
Nov 28
Full

Hourly Weather History & Observations

Time (ADT) Temp. Dew Point Humidity Pressure Visibility Wind Dir Wind Speed Gust Speed Precip Events Conditions
12:00 AM 57 °F 56 °F 95% 29.89 in - East 27.6 mph - -  
12:00 AM 57.0 °F 55.9 °F 96% 29.89 in - East 27.6 mph 36.8 mph N/A   Unknown
1:00 AM 57.0 °F 55.8 °F 96% 29.90 in - East 25.3 mph 33.4 mph N/A   Unknown
2:00 AM 57.0 °F 55.9 °F 96% 29.88 in - East 27.6 mph 34.5 mph N/A   Unknown
3:00 AM 58 °F 56 °F 92% 29.89 in - East 24.2 mph - -  
4:00 AM 57.6 °F 56.5 °F 96% 29.90 in - East 25.3 mph 33.4 mph N/A   Unknown
5:00 AM 57.4 °F 56.3 °F 96% 29.90 in - East 23.0 mph 32.2 mph N/A   Unknown
6:00 AM 57 °F 56 °F 97% 29.90 in - East 25.3 mph - -  
6:00 AM 57.4 °F 56.5 °F 97% 29.90 in - East 25.3 mph 33.4 mph N/A   Unknown
7:00 AM 57.7 °F 56.7 °F 96% 29.90 in - East 25.3 mph 33.4 mph N/A   Unknown
8:00 AM 57.9 °F 57.0 °F 97% 29.91 in - East 24.2 mph 31.1 mph N/A   Unknown
9:00 AM 58 °F 57 °F 96% 29.93 in - East 25.3 mph - -  
9:00 AM 57.9 °F 57.2 °F 97% 29.93 in - East 25.3 mph - 0.04 in   Unknown
10:00 AM 58.1 °F 57.6 °F 98% 29.95 in - East 24.2 mph 31.1 mph 0.03 in   Unknown
11:00 AM 58.5 °F 58.1 °F 99% 29.96 in - East 25.3 mph 31.1 mph N/A   Unknown
12:00 PM 58 °F 58 °F 100% 29.96 in - East 24.2 mph - -  
12:00 PM 58.5 °F 58.1 °F 99% 29.96 in - East 24.2 mph - 0.09 in   Unknown
1:00 PM 59.0 °F 58.8 °F 99% 29.95 in - East 26.5 mph 32.2 mph 0.05 in   Unknown
2:00 PM 58.5 °F 57.9 °F 98% 29.94 in - East 25.3 mph 32.2 mph N/A   Unknown
3:00 PM 59 °F 58 °F 96% 29.94 in - ESE 24.2 mph - -  
3:00 PM 58.6 °F 58.1 °F 98% 29.94 in - ESE 24.2 mph - N/A   Unknown
4:00 PM 58.6 °F 57.9 °F 97% 29.94 in - ESE 25.3 mph 32.2 mph N/A   Unknown
5:00 PM 58.8 °F 58.1 °F 97% 29.94 in - ESE 24.2 mph - N/A   Unknown
6:00 PM 58 °F 57 °F 96% 29.93 in - East 23.0 mph - -  
6:00 PM 57.9 °F 57.2 °F 97% 29.93 in - East 23.0 mph 29.9 mph 0.03 in   Unknown
7:00 PM 58.3 °F 57.6 °F 97% 29.93 in - ESE 25.3 mph 32.2 mph N/A   Unknown
8:00 PM 58.1 °F 57.4 °F 97% 29.93 in - East 24.2 mph - N/A   Unknown
9:00 PM 58 °F 58 °F 98% 29.93 in - ESE 25.3 mph - -  
9:00 PM 58.3 °F 57.6 °F 97% 29.93 in - ESE 25.3 mph 32.2 mph N/A   Unknown
10:00 PM 58.5 °F 57.6 °F 97% 29.92 in - ESE 26.5 mph 34.5 mph N/A   Unknown
11:00 PM 58.3 °F 57.4 °F 97% 29.90 in - East 24.2 mph 31.1 mph N/A   Unknown